Weather History for Fargo, ND

Change the Weather History Date:

Friday, September 5, 2014

  Actual Average Record
Temperature  
Mean Temperature 60 °F 64 °F  
Max Temperature 71 °F 76 °F 99 °F (1947)
Min Temperature 48 °F 52 °F 26 °F (1885)
Degree Days  
Heating Degree Days 5 4  
Month to date heating degree days 5 17  
Since 1 July heating degree days 37 67  
Cooling Degree Days 0 3  
Month to date cooling degree days 3 15  
Year to date cooling degree days 504 520  
Growing Degree Days 10 (Base 50)    
Moisture  
Dew Point 48 °F    
Average Humidity 65    
Maximum Humidity 89    
Minimum Humidity 41    
Precipitation  
Precipitation 0.00 in 0.10 in 1.37 in (2005)
Month to date precipitation 1.99 0.49  
Year to date precipitation 18.45 16.55  
Snow  
Snow 0.00 in 0.00 in 0.00 in ()
Month to date snowfall 0.0 0.0  
Since 1 July snowfall 0.0 0.0  
Since 1 September snowfall 0.0 0.0  
Snow Depth 0.00 in    
Sea Level Pressure  
Sea Level Pressure 30.13 in    
Wind  
Wind Speed 10 mph (West)    
Max Wind Speed 20 mph    
Max Gust Speed 24 mph    
Visibility 10 miles    
Events      
T = Trace of Precipitation, MM = Missing Value Source: NWS Daily Summary

Daily Weather History Graph

Daily Weather History Graph

Search for Another Location

Airport:

Trip Planner

Search our weather history database for the weather conditions in past years. The results will help you decide how hot, cold, wet, or windy it might be!

Date:

Astronomy

Sep. 05, 2014 Rise Set
Actual Time 6:52 AM CDT 7:58 PM CDT
Civil Twilight 6:20 AM CDT 8:29 PM CDT
Nautical Twilight 5:43 AM CDT 9:07 PM CDT
Astronomical Twilight 5:03 AM CDT 9:46 PM CDT
Moon 5:37 PM CDT (9/5) 2:36 AM CDT (9/5)
Length of Visible Light 14h 09m
Length of Day
13h 06m
Waxing Gibbous, 84% of the Moon is Illuminated
Sep 5
Waxing Gibbous
Sep 8
Full
Sep 15
Last Quarter
Sep 24
New
Oct 1
First Quarter

Hourly Weather History & Observations

Time (CDT) Temp. Dew Point Humidity Pressure Visibility Wind Dir Wind Speed Gust Speed Precip Events Conditions
12:53 AM 53.1 °F 48.9 °F 86% 30.01 in 10.0 mi WNW 10.4 mph - N/A   Clear
1:53 AM 53.1 °F 48.9 °F 86% 30.03 in 10.0 mi WNW 10.4 mph - N/A   Partly Cloudy
2:53 AM 53.1 °F 48.9 °F 86% 30.04 in 10.0 mi NW 15.0 mph - N/A   Clear
3:53 AM 51.8 °F 48.2 °F 88% 30.07 in 10.0 mi NW 19.6 mph - N/A   Clear
4:53 AM 51.1 °F 46.9 °F 86% 30.11 in 10.0 mi NW 12.7 mph - N/A   Clear
5:53 AM 50.0 °F 46.0 °F 86% 30.14 in 10.0 mi NW 10.4 mph - N/A   Clear
6:53 AM 48.2 °F 44.6 °F 87% 30.15 in 10.0 mi WNW 6.9 mph - N/A   Clear
7:53 AM 48.0 °F 45.0 °F 89% 30.18 in 10.0 mi West 5.8 mph - N/A   Clear
8:53 AM 53.1 °F 46.9 °F 80% 30.19 in 10.0 mi West 8.1 mph - N/A   Clear
9:53 AM 57.0 °F 48.9 °F 74% 30.19 in 10.0 mi NW 9.2 mph - N/A   Clear
10:53 AM 61.0 °F 48.9 °F 64% 30.20 in 10.0 mi NNW 4.6 mph - N/A   Partly Cloudy
11:53 AM 64.0 °F 48.9 °F 58% 30.19 in 10.0 mi West 8.1 mph - N/A   Scattered Clouds
12:53 PM 66.0 °F 48.9 °F 54% 30.19 in 10.0 mi West 6.9 mph - N/A   Mostly Cloudy
1:53 PM 68.0 °F 48.0 °F 49% 30.18 in 10.0 mi WNW 9.2 mph - N/A   Scattered Clouds
2:53 PM 68.0 °F 46.9 °F 47% 30.17 in 10.0 mi WNW 12.7 mph - N/A   Mostly Cloudy
3:53 PM 71.1 °F 46.0 °F 41% 30.15 in 10.0 mi West 10.4 mph - N/A   Partly Cloudy
4:53 PM 71.6 °F 46.4 °F 41% 30.13 in 10.0 mi West 11.5 mph - N/A   Clear
5:53 PM 70.0 °F 48.9 °F 47% 30.13 in 10.0 mi WSW 8.1 mph - N/A   Scattered Clouds
6:53 PM 68.0 °F 50.0 °F 52% 30.11 in 10.0 mi WSW 10.4 mph - N/A   Clear
7:53 PM 64.0 °F 51.1 °F 63% 30.11 in 10.0 mi SW 9.2 mph - N/A   Clear
8:53 PM 63.0 °F 51.1 °F 65% 30.11 in 10.0 mi SW 10.4 mph - N/A   Clear
9:53 PM 62.1 °F 51.1 °F 67% 30.11 in 10.0 mi SW 11.5 mph - N/A   Clear
10:53 PM 61.0 °F 50.0 °F 67% 30.11 in 10.0 mi SW 11.5 mph - N/A   Clear
11:53 PM 57.0 °F 50.0 °F 77% 30.13 in 10.0 mi WSW 10.4 mph - N/A   Clear